This is the latest recevied weather packets stored in our database for station/object KC4JIR. If no packets are shown the sender has not sent any weather packets the latest 10 day(s).
| Time | Temp. | Humidity | Pressure | Rain* | Wind** | Luminosity | Snow |
|---|---|---|---|---|---|---|---|
| 1777704629 | 12.78° C | 99% | 1009.9 hPa | 0 mm | - | 0 W/m² | - |
| 1777704327 | 12.78° C | 99% | 1010.2 hPa | 1.78 mm | - | 0 W/m² | - |
| 1777704019 | 12.78° C | 99% | 1010.6 hPa | 3.05 mm | - | 0 W/m² | - |
| 1777703716 | 12.78° C | 99% | 1010.7 hPa | 10.16 mm | - | 0 W/m² | - |
| 1777703414 | 12.78° C | 99% | 1010.8 hPa | 8.89 mm | - | 0 W/m² | - |
| 1777703111 | 13.33° C | 99% | 1011.2 hPa | 1.78 mm | - | 0 W/m² | - |
| 1777702809 | 13.33° C | 99% | 1011 hPa | 3.56 mm | - | 0 W/m² | - |
| 1777702507 | 13.33° C | 99% | 1011.2 hPa | 8.89 mm | - | 0 W/m² | - |
| 1777702204 | 13.33° C | 99% | 1011.3 hPa | 7.11 mm | - | 0 W/m² | - |
| 1777701898 | 13.33° C | 99% | 1010.6 hPa | 0 mm | - | 0 W/m² | - |
| 1777701595 | 13.33° C | 99% | 1010.9 hPa | 3.05 mm | - | 0 W/m² | - |
| 1777701292 | 13.33° C | 99% | 1011.5 hPa | 4.83 mm | - | 0 W/m² | - |
| 1777700987 | 13.33° C | 99% | 1011.5 hPa | 3.05 mm | - | 0 W/m² | - |
| 1777700684 | 13.89° C | 99% | 1011.7 hPa | 3.05 mm | - | 0 W/m² | - |
| 1777700381 | 13.89° C | 99% | 1011.6 hPa | 6.6 mm | - | 0 W/m² | - |
| 1777700078 | 13.89° C | 99% | 1011.3 hPa | 4.83 mm | - | 0 W/m² | - |
| 1777698567 | 13.89° C | 99% | 1011.2 hPa | 0 mm | - | 0 W/m² | - |
| 1777698263 | 13.89° C | 99% | 1011.4 hPa | 1.27 mm | - | 0 W/m² | - |
| 1777697961 | 13.89° C | 99% | 1011.2 hPa | 1.27 mm | - | 0 W/m² | - |
| 1777697657 | 13.89° C | 99% | 1011.4 hPa | 0 mm | - | 0 W/m² | - |
| 1777697354 | 13.89° C | 99% | 1011.2 hPa | 1.78 mm | - | 0 W/m² | - |
| 1777697050 | 13.89° C | 99% | 1011.1 hPa | 1.78 mm | - | 0 W/m² | - |
| 1777696747 | 13.89° C | 99% | 1011.2 hPa | 1.27 mm | - | 0 W/m² | - |
| 1777696445 | 13.89° C | 99% | 1010.9 hPa | 1.27 mm | - | 0 W/m² | - |
| 1777696144 | 13.89° C | 99% | 1010.7 hPa | 0 mm | - | 0 W/m² | - |
* Rain latest hour (hover to see other rain measurements)
** Current wind speed in m/s (hover to see current wind gust speed)